www.pogodaiklimat.ru

Погода и климат >> Архив погоды >> Россия >> Адыгея >> Майкоп


ПОГОДА в Майкопе

АРХИВ ПОГОДЫ в Майкопе

Время (UTC), дата Ветер
(напр.,м/с)
 
Видим.   Явления Облачность Т
(С)
Тd
(С)
f
(%)
Тe
(С)
Тes
(С)
Комфортность P
(гПа)
Po
(гПа)
Тmin
(С)
Tmax
(С)
R
(мм)
R24
(мм)
S
(см)
12 17.01 С 1 20 км 3/0
[Ci fib]
+2.6 -4.9 58 +2 +4 тепло 1018.5 991.3
15 17.01 В 1 20 км ясно -3.6 -5.6 86 -6 -6 по сезону 1021.0 993.2 +3.6
18 17.01 ЮВ 2 20 км ясно -2.0 -4.5 83 -6 -6 по сезону 1022.3 994.6
21 17.01 ЮВ 3 20 км ясно -3.0 -5.9 80 -8 -8 по сезону 1023.2 995.4
00 18.01 Ю 4 20 км ясно -3.1 -7.0 74 -9 -9 по сезону 1024.2 996.3
03 18.01 Ю 4 20 км ясно -3.9 -8.0 73 -10 -10 прохладно 1024.1 996.1 -4.7 6
06 18.01 ЮВ 4 20 км ясно -3.3 -8.4 68 -9 -9 по сезону 1024.5 996.6
09 18.01 ЮВ 4 20 км ясно +2.5 -6.7 51 -2 +1 по сезону 1023.5 996.2
12 18.01 ЮВ 1 20 км 1/0
[Ci sp]
+7.4 -8.0 33 +7 +9 тепло 1021.7 994.9
15 18.01 В 1 20 км 3/0
[Ci sp]
+1.1 -4.6 66 -0 -0 тепло 1022.6 995.2 +7.7
18 18.01 Ю 2 20 км 3/0
[Ci sp]
+0.2 -4.0 73 -3 -3 по сезону 1022.7 995.2
21 18.01 Ю 3 20 км 3/0
[Ci sp]
-0.7 -4.8 74 -5 -5 по сезону 1022.5 994.9
00 19.01 ЮВ 4 20 км 3/0
[Ci sp]
-1.0 -5.8 70 -6 -6 по сезону 1021.9 994.3
03 19.01 Ю 3 20 км 4/0
[Ci sp]
-2.2 -6.6 72 -7 -7 по сезону 1021.5 993.8 -2.2 3
06 19.01 Ю 4 20 км 8/0
[Ci sp]
-1.4 -6.7 67 -7 -6 по сезону 1021.5 993.9 -2.8
09 19.01 ЮВ 2 20 км 9/0
[Ci sp]
+3.8 -5.3 51 +2 +5 тепло 1021.2 994.1
12 19.01 Ю 2 20 км 10/4 1000 м
[Sc Ci sp]
+5.4 -5.0 47 +4 +4 тепло 1019.8 992.9
15 19.01 ЮВ 2 20 км 10/6 1000 м
[Sc Ac As]
+4.8 -4.3 52 +3 +3 тепло 1019.8 992.9 +6.5
18 19.01 ЮВ 1 20 км 9/0
[Ac trans Ci sp]
+3.2 -2.7 65 +2 +2 тепло 1020.7 993.6
21 19.01 ЮВ 2 20 км 10/4 1000 м
[Sc Ac trans]
+2.4 -2.0 73 -1 -1 тепло 1021.9 994.6
00 20.01 З 2 10 км 10/6 1000 м
[Sc Ac As]
+2.6 +2.4 99 -1 -1 тепло 1023.7 996.5
03 20.01 З 1 4000 м слаб. ливневой дождь 10/8 600 м
[Cb cap Ac As]
+1.4 +1.4 100 -1 -1 тепло 1025.1 997.7 +1.4 0.1 1
06 20.01 СЗ 1 4000 м слаб. ливневой дождь 10/8 600 м
[Cb cap Ac und]
+0.8 +0.8 100 -1 -1 тепло 1025.8 998.3 +0.8
09 20.01 СВ 2 4000 м дымка {ливн. осадки} 10/10 300 м
[St]
+1.2 +1.2 100 -3 -3 по сезону 1025.7 998.2
12 20.01 В 2 10 км {ливн. осадки} 10/8 600 м
[Sc Ac und]
+2.7 +1.8 94 -1 -1 по сезону 1024.4 997.1
15 20.01 штиль 0 10 км 10/5 600 м
[Sc Ac trans Ci sp]
+1.8 +0.8 93 +1 +1 тепло 1024.2 996.9 +3.3 0.3
18 20.01 В 2 10 км 3/0
[Ci sp]
+0.3 +0.2 99 -4 -4 по сезону 1023.5 996.0
21 20.01 Ю 3 20 км 10/3 1000 м
[Sc Ac trans Ci sp]
+0.7 -0.7 90 -4 -4 по сезону 1023.2 995.7
00 21.01 ЮВ 3 20 км 4/0
[Ac trans Ci sp]
+0.2 -1.7 87 -4 -4 по сезону 1022.1 994.7
03 21.01 ЮВ 4 20 км 3/0
[Ac trans]
+0.4 -2.1 83 -5 -5 по сезону 1020.2 992.8 -1.5 0
06 21.01 ЮВ 4 20 км 3/0
[Ac As]
+1.1 -2.3 78 -4 -3 по сезону 1019.0 991.7
09 21.01 ЮВ 1 20 км 8/0
[Ac As Ci sp]
+9.5 -1.0 48 +9 +13 тепло 1017.0 990.5
12 21.01 ЮЗ 2 20 км 8/1 1000 м
[Sc Ac As Ci sp]
+11.8 -3.9 33 +11 +12 тепло 1014.8 988.6
15 21.01 Ю 1 20 км 9/1 1000 м
[Sc Ac As Ci sp]
+6.2 -1.0 60 +6 +6 тепло 1014.8 988.1 +13.1
18 21.01 ЮЗ 2 20 км 10/3 1000 м
[Sc Ac und]
+9.1 -5.2 36 +8 +8 тепло 1014.1 987.6
21 21.01 ЮЗ 5-11
{11}
20 км 10/8 1000 м
[Sc Ac und]
+9.0 -2.7 44 +6 +6 тепло 1014.7 988.3
00 22.01 З 3
{14}
20 км 9/6 1000 м
[Sc Ac und]
+5.2 +1.6 78 +2 +2 тепло 1016.5 989.7
03 22.01 З 3 10 км слаб. ливневой дождь 10/8 600 м
[Cb cap Ac und]
+3.6 +3.1 97 -1 -1 тепло 1017.3 990.3 +3.6 0.1
06 22.01 Ю 1 4000 м слаб. ливневой дождь со снегом 10/10 300 м
[Cb cap]
+0.5 +0.5 100 -2 -2 тепло 1019.6 992.2 +0.5
09 22.01 СЗ 2 4000 м слаб. ливневой снег 10/10 300 м
[Cb cap]
+0.4 +0.4 100 -3 -3 по сезону 1021.3 993.9
12 22.01 С 3 10 км снежные зёрна {ливн. осадки} 10/10 300 м
[St]
-0.2 -0.2 100 -5 -5 по сезону 1021.7 994.2
15 22.01 СВ 1 10 км снежные зёрна 10/10 300 м
[St]
-1.0 -1.3 98 -3 -3 по сезону 1022.8 995.2 +3.6 5
18 22.01 СВ 2 10 км {снег} 10/10 300 м
[St]
-1.0 -1.3 98 -5 -5 по сезону 1022.8 995.2
21 22.01 В 2 10 км 10/10 300 м
[St]
-0.8 -0.9 99 -5 -5 по сезону 1022.6 995.0
00 23.01 В 2 10 км 10/10 300 м
[St]
-0.4 -0.9 96 -4 -4 по сезону 1021.7 994.2
03 23.01 В 2 10 км 8/4 300 м
[St Ci sp]
-1.0 -1.4 97 -5 -5 по сезону 1020.3 992.8 -1.0 0.0
06 23.01 В 2 10 км 10/10 300 м
[St]
-0.2 -1.0 94 -4 -4 по сезону 1020.1 992.6
09 23.01 СВ 3 20 км 10/10 300 м
[St]
+1.4 -0.5 87 -3 -3 по сезону 1019.5 992.2
12 23.01 СВ 3 20 км 3/1 600 м
[Sc Ci sp]
+4.3 +0.7 77 +1 +2 тепло 1017.2 990.3
15 23.01 В 1 20 км 9/0
[Ci sp]
+1.8 -0.3 86 0 0 тепло 1016.3 989.1 +4.3
18 23.01 В 2 20 км 9/0
[Ci sp]
+1.1 -0.9 86 -2 -2 по сезону 1015.6 988.4
21 23.01 ЮВ 3 20 км 8/0
[Ci sp]
+1.2 -2.1 79 -3 -3 по сезону 1015.4 988.2
00 24.01 ЮВ 4 20 км 9/0
[Ci sp]
+1.5 -2.7 74 -3 -3 по сезону 1014.8 987.7
03 24.01 ЮВ 3 20 км 10/0
[Ci sp]
+1.8 -3.2 69 -2 -2 тепло 1013.6 986.5 -0.3
06 24.01 ЮВ 4 20 км 6/0
[Ac As Ci sp]
+3.4 -3.2 62 -1 -0 тепло 1013.4 986.4
09 24.01 ЮВ 3 20 км 3/0
[Ci ing]
+11.4 -4.2 33 +10 +14 тепло 1012.0 986.2

 

Местоположение метеостанции Майкоп (Адыгея, Россия): широта 44.62 долгота 40.08 высота над уровнем моря 216 м.

В архиве по умолчанию представлена погода в Майкопе за последнюю неделю. Архивные данные за месяц целиком и за предыдущие месяцы, начиная с января 2011 года, Вы можете получить, выбрав интересующий диапазон дат из раскрывающегося списка и нажав кнопку "Ввод!".


*Определитесь, кто Вы:
робот инопланетянин человек

Внимание! Время в таблицах - всемирное. Для получения местного времени необходимо прибавить поправку, которая равна 3 ч.

Смотрите также архив погоды в соседних городах и на ближайших метеорологических станциях:

Погода в Шунтуке (Адыгея, Россия) (17 км)
Погода в Белореченске (Краснодарский край, Россия) (20 км)
Погода в Дондуковской (Адыгея, Россия) (34 км)
Погода в Лабинске (Краснодарский край, Россия) (53 км)
Погода в Даховской (Адыгея, Россия) (53 км)
Погода в Гузерипле (Адыгея, Россия) (69 км)
Погода в Усть-Лабинске (Краснодарский край, Россия) (73 км)
Погода в Горном (Краснодарский край, Россия) (75 км)
Погода в Горячем Ключе (Краснодарский край, Россия) (78 км)
Погода в Псебае (Краснодарский край, Россия) (78 км)

Пояснения к столбцам:

Ветер - указаны скорость ветра в м/с - средняя за 10 мин, порывы в срок и между сроками (в фигурных скобках) и направление, откуда дует ветер: С - северный, СВ - северо-восточный, В - восточный, ЮВ - юго-восточный, Ю - южный, ЮЗ - юго-западный, З - западный, СЗ - северо-западный.
Видимость - горизонтальная дальность видимости в метрах или километрах. При видимости от 1 до 10 км при отсутствии осадков обычно наблюдается дымка, при ухудшении видимости до 1 км и менее - туман. В сухую погоду видимость может ухудшаться дымом, пылью или мглою.
Явления - указаны атмосферные явления, наблюдавшиеся в срок или в последний час перед сроком; фигурными скобками обозначены явления, наблюдавшиеся между сроками (за 1-3 часа до срока); квадратными скобками обозначены град или гололедные отложения с указанием их диаметра в мм.
Облачность - указаны через наклонную черту общая и нижняя облачность в баллах и высота нижней границы облаков в метрах; квадратными скобками обозначены формы облаков: Ci - перистые, Cs - перисто-слоистые, Cc - перисто-кучевые, Ac - высококучевые, As - высокослоистые, Sc - слоисто-кучевые, Ns - слоисто-дождевые, Cu - кучевые, Cb - кучево-дождевые. Подробнее классификацию облаков см. в Атласе облаков (PDF).
T - Температура воздуха - температура, измеренная на высоте 2 м над землей.
Td - Температура точки росы - температура, при понижении до которой содержащийся в воздухе водяной пар достигнет насыщения.
f - Относительная влажность воздуха - влажноcть воздуха, измеренная на высоте 2 м над землей.
Te - Эффективная температура - температура, которую ощущает одетый по сезону человек в тени. Характеристика душности погоды. При расчете учитывается влияние влажности воздуха и скорости ветра на теплоощущения человека.
Tes - Эффективная температура на солнце - температура, которую ощущает человек, с поправкой на солнечный нагрев. Характеристика знойности погоды. Зависит от высоты солнца над горизонтом, облачности и скорости ветра. Ночью, в пасмурную погоду, а также при ветре 12 м/с и более поправка равна нулю.
P - Атмосферное давление - приведенное к уровню моря атмосферное давление.
Po - Атмосферное давление - измеренное на уровне метеостанции атмосферное давление.
Tmin - Минимальная температура - минимум температуры воздуха на высоте 2 м над землей.
Tmax - Максимальная температура - максимум температуры воздуха на высоте 2 м над землей.
R - Количество осадков - Количество выпавших осадков за период времени, мм. При наведении курсора мыши на число - период времени, за который выпало указанное количество осадков.
R24 - Количество осадков - Количество выпавших осадков за 24 часа, мм.
S - Снежный покров - Высота снежного покрова, см. При наведении курсора мыши на число - состояние снежного покрова и степень покрытия местности в баллах.